Voltar ao catálogo

FENGYUN 1C DEB

AtivoSSO
NORAD 32200·DEBRIS·🇨🇳 China

Lançado May 10, 1999 de Taiyuan Satellite Launch Center

Loading…

Próximas Passagens (próximas 24 horas)

TLE

AtualizadoSource: Space-Track

Época: Sep 12, 2026, 08:37 UTC

1 32200U 99025CUW 26255.35940785  .00001080  00000-0  55915-3 0  9990
2 32200  98.7676 305.4329 0039404 226.9341 132.8533 14.16625263982364

Acompanhe FENGYUN 1C DEB em tempo real com AllMySat

Download on the App Store